Volver al catálogo

BLOCK DM-SL R/B

ActivoGTO
NORAD 29046·ROCKET BODY· XX

Lanzado Apr 12, 2006 desde Sea Launch Platform

Loading…

TLE

EnvejeciendoSource: Space-Track

Época: Sep 14, 2026, 11:59 UTC

1 29046U 06010B   26257.49968854 -.00000165  00000-0  00000-0 0  9996
2 29046   0.1514  53.5282 6786832 142.2579 122.4223  2.19418380163742

Sigue BLOCK DM-SL R/B en tiempo real con AllMySat

Download on the App Store